QPF
0.01 0.01 0.02 0.02 0.02 0.03 0.02 0.02 0.02 0.02 0.02 0.01 0.02 0.02 0.03 0.03 0.02 0.03 0.03 0.03 0.02 0.02 0.02 0.02 0.01 0.01 0.01 0.01 0.01 0.02 0.02 0.02 0.03 0.03 0.03 0.03 0.03 0.03 0.03 0.02 0.02 0.02 0.01 0.02
0.01 0.01 0.01 0.02 0.02 0.03 0.02 0.02 0.02 0.01 0.01 0.01 0.02 0.02 0.02 0.03 0.03 0.03 0.03 0.02 0.02 0.02 0.02 0.01 0.01 0.01 0.01 0.01 0.01 0.01 0.02 0.02 0.02 0.03 0.03 0.03 0.03 0.03 0.03 0.02 0.02 0.02 0.01 0.01
0.02 0.02 0.02 0.03 0.03 0.03 0.03 0.03 0.02 0.02 0.02 0.01 0.01 0.02 0.02 0.03 0.03 0.02 0.02 0.02 0.02 0.02 0.02 0.01 0.01 0.01 0.01 0.01 0.01 0.01 0.02 0.01 0.02 0.02 0.02 0.03 0.03 0.03 0.02 0.02 0.02 0.01 0.01 0.01
0.03 0.03 0.03 0.02 0.02 0.03 0.03 0.03 0.02 0.02 0.01 0.01 0.02 0.01 0.02 0.03 0.03 0.02 0.02 0.02 0.01 0.01 0.01 0.01 0.01 0.01 0.01 0.01 0.01 0.01 0.01 0.01 0.01 0.02 0.02 0.02 0.02 0.02 0.02 0.02 0.02 0.01 0.01 0.01
0.04 0.04 0.03 0.01 0.01 0.02 0.03 0.03 0.03 0.02 0.02 0.02 0.02 0.01 0.02 0.03 0.02 0.02 0.02 0.02 0.01 0.01 0.01 0.01 0.01 0.01 0.01 0.01 0.01 0.01 0.01 0.01 0.01 0.02 0.02 0.02 0.02 0.02 0.01 0.02 0.02 0.02 0.02 0.01
0.03 0.04 0.02 0.02 0.01 0.01 0.02 0.03 0.03 0.03 0.03 0.02 0.01 0.02 0.02 0.02 0.02 0.02 0.02 0.01 0.01 0.01 0.01 0.01 0.01 0.01 0.01 0.01 0.01 0.01 0.01 0.02 0.02 0.02 0.03 0.03 0.03 0.03 0.02 0.02 0.03 0.03 0.02 0.02
0.03 0.03 0.02 0.02 0.01 0.01 0.02 0.03 0.02 0.03 0.03 0.02 0.02 0.02 0.01 0.02 0.02 0.02 0.01 0.01 0.01 0.01 0.01 0.01 0.00 0.00 0.01 0.01 0.01 0.01 0.01 0.01 0.02 0.02 0.02 0.02 0.03 0.03 0.02 0.03 0.03 0.03 0.03 0.02
0.02 0.03 0.03 0.02 0.01 0.02 0.02 0.02 0.02 0.03 0.03 0.03 0.02 0.01 0.01 0.01 0.01 0.01 0.01 0.01 0.01 0.01 0.01 0.00 0.00 0.01 0.01 0.01 0.01 0.01 0.01 0.02 0.02 0.02 0.02 0.02 0.02 0.03 0.03 0.03 0.03 0.03 0.02 0.02
0.01 0.02 0.02 0.01 0.02 0.02 0.03 0.03 0.02 0.03 0.03 0.03 0.02 0.01 0.01 0.01 0.01 0.01 0.01 0.01 0.01 0.01 0.01 0.01 0.01 0.01 0.02 0.02 0.02 0.02 0.02 0.02 0.02 0.02 0.02 0.03 0.03 0.03 0.03 0.03 0.03 0.02 0.02 0.02
0.01 0.01 0.01 0.01 0.01 0.02 0.03 0.03 0.02 0.03 0.03 0.03 0.02 0.01 0.01 0.01 0.01 0.00 0.00 0.00 0.00 0.00 0.01 0.01 0.01 0.01 0.01 0.02 0.02 0.03 0.03 0.03 0.03 0.03 0.02 0.02 0.02 0.02 0.02 0.02 0.02 0.02 0.02 0.02
0.01 0.01 0.01 0.01 0.01 0.03 0.03 0.03 0.03 0.03 0.03 0.03 0.02 0.02 0.01 0.00 0.00 0.00 0.00 0.00 0.00 0.01 0.01 0.01 0.01 0.01 0.01 0.02 0.02 0.03 0.03 0.04 0.03 0.03 0.02 0.02 0.02 0.02 0.02 0.01 0.01 0.01 0.01 0.01
0.01 0.01 0.02 0.01 0.02 0.03 0.03 0.03 0.03 0.03 0.03 0.03 0.02 0.02 0.01 0.01 0.00 0.00 0.00 0.01 0.01 0.01 0.01 0.01 0.01 0.01 0.02 0.02 0.02 0.02 0.03 0.03 0.03 0.03 0.02 0.02 0.02 0.02 0.02 0.02 0.02 0.01 0.01 0.01
0.01 0.01 0.02 0.02 0.02 0.03 0.03 0.04 0.04 0.04 0.03 0.03 0.02 0.02 0.02 0.01 0.00 0.00 0.00 0.01 0.01 0.01 0.01 0.01 0.01 0.01 0.02 0.02 0.02 0.03 0.03 0.03 0.03 0.03 0.03 0.02 0.02 0.02 0.02 0.02 0.02 0.02 0.02 0.02
0.01 0.01 0.01 0.02 0.02 0.03 0.03 0.03 0.04 0.04 0.03 0.03 0.02 0.02 0.02 0.01 0.01 0.01 0.01 0.01 0.01 0.01 0.01 0.01 0.01 0.02 0.02 0.02 0.02 0.03 0.03 0.03 0.03 0.03 0.03 0.03 0.03 0.03 0.02 0.02 0.02 0.02 0.02 0.02
0.01 0.01 0.02 0.02 0.02 0.02 0.02 0.02 0.03 0.03 0.03 0.03 0.03 0.02 0.02 0.02 0.01 0.01 0.01 0.01 0.01 0.01 0.01 0.01 0.01 0.01 0.02 0.02 0.02 0.03 0.03 0.03 0.03 0.03 0.03 0.03 0.03 0.03 0.03 0.03 0.03 0.02 0.02 0.02
0.01 0.01 0.01 0.01 0.02 0.02 0.02 0.02 0.02 0.03 0.03 0.03 0.03 0.03 0.03 0.03 0.02 0.01 0.01 0.01 0.02 0.01 0.01 0.01 0.01 0.02 0.02 0.02 0.02 0.03 0.03 0.03 0.02 0.02 0.02 0.02 0.03 0.03 0.03 0.03 0.03 0.03 0.03 0.03
0.01 0.01 0.01 0.01 0.02 0.02 0.02 0.02 0.02 0.02 0.02 0.02 0.02 0.02 0.02 0.02 0.02 0.02 0.02 0.02 0.02 0.02 0.02 0.02 0.02 0.02 0.02 0.02 0.02 0.03 0.03 0.02 0.02 0.01 0.02 0.02 0.02 0.02 0.03 0.03 0.03 0.03 0.03 0.03
0.01 0.01 0.01 0.02 0.02 0.02 0.02 0.02 0.02 0.02 0.01 0.01 0.01 0.01 0.02 0.02 0.03 0.02 0.02 0.02 0.02 0.02 0.02 0.02 0.03 0.03 0.03 0.03 0.02 0.02 0.02 0.02 0.01 0.01 0.01 0.02 0.02 0.03 0.03 0.03 0.03 0.03 0.03 0.03
0.01 0.01 0.01 0.01 0.02 0.02 0.02 0.02 0.01 0.01 0.01 0.01 0.01 0.01 0.01 0.02 0.02 0.03 0.02 0.02 0.02 0.02 0.02 0.03 0.04 0.04 0.03 0.03 0.03 0.03 0.03 0.02 0.02 0.02 0.02 0.03 0.03 0.03 0.04 0.04 0.03 0.03 0.03 0.02
0.01 0.01 0.01 0.01 0.01 0.02 0.02 0.02 0.01 0.00 0.00 0.00 0.00 0.01 0.01 0.01 0.02 0.02 0.02 0.02 0.02 0.02 0.03 0.03 0.04 0.04 0.04 0.04 0.04 0.04 0.03 0.02 0.03 0.03 0.04 0.03 0.03 0.04 0.04 0.04 0.04 0.03 0.03 0.03
0.01 0.01 0.01 0.01 0.01 0.01 0.01 0.01 0.01 0.00 0.00 0.00 0.00 0.01 0.01 0.01 0.01 0.02 0.02 0.02 0.02 0.02 0.02 0.02 0.03 0.04 0.04 0.04 0.04 0.04 0.04 0.03 0.04 0.04 0.04 0.03 0.03 0.03 0.04 0.04 0.03 0.03 0.03 0.03
0.01 0.01 0.01 0.01 0.01 0.01 0.01 0.01 0.00 0.00 0.00 0.00 0.00 0.01 0.01 0.01 0.01 0.01 0.02 0.02 0.02 0.02 0.02 0.02 0.03 0.04 0.04 0.04 0.04 0.04 0.04 0.04 0.04 0.03 0.03 0.03 0.03 0.03 0.03 0.03 0.03 0.03 0.03 0.02
0.01 0.01 0.01 0.01 0.01 0.01 0.01 0.01 0.00 0.00 0.00 0.00 0.00 0.01 0.01 0.01 0.01 0.01 0.01 0.02 0.02 0.02 0.02 0.02 0.03 0.03 0.03 0.04 0.04 0.04 0.04 0.04 0.04 0.03 0.03 0.03 0.03 0.03 0.03 0.03 0.03 0.03 0.03 0.02
0.00 0.00 0.01 0.01 0.01 0.01 0.01 0.00 0.00 0.00 0.00 0.00 0.01 0.01 0.01 0.01 0.01 0.01 0.01 0.01 0.02 0.02 0.02 0.02 0.02 0.02 0.02 0.03 0.03 0.04 0.04 0.03 0.03 0.02 0.02 0.02 0.02 0.02 0.02 0.02 0.03 0.03 0.02 0.02
0.00 0.00 0.01 0.01 0.01 0.01 0.01 0.01 0.01 0.00 0.00 0.00 0.01 0.01 0.01 0.01 0.01 0.01 0.01 0.01 0.01 0.01 0.01 0.01 0.01 0.01 0.02 0.02 0.02 0.02 0.03 0.03 0.02 0.02 0.02 0.02 0.02 0.02 0.02 0.02 0.02 0.02 0.02 0.02
0.00 0.00 0.01 0.01 0.01 0.01 0.01 0.01 0.01 0.01 0.00 0.01 0.01 0.01 0.01 0.01 0.01 0.01 0.01 0.01 0.01 0.01 0.01 0.01 0.01 0.01 0.01 0.01 0.01 0.01 0.01 0.02 0.02 0.02 0.02 0.01 0.01 0.01 0.01 0.01 0.01 0.02 0.02 0.02
0.00 0.01 0.01 0.01 0.01 0.01 0.01 0.01 0.01 0.01 0.00 0.01 0.01 0.01 0.01 0.01 0.01 0.01 0.01 0.01 0.01 0.01 0.01 0.01 0.01 0.01 0.01 0.01 0.01 0.01 0.01 0.01 0.01 0.01 0.01 0.01 0.01 0.01 0.01 0.01 0.01 0.01 0.01 0.01
MSLP
1023.88 1023.70 1023.45 1023.15 1022.79 1022.36 1021.87 1021.29 1020.64 1019.91 1019.15 1018.40 1017.71 1017.15 1016.77 1016.61 1016.68 1016.95 1017.39 1017.92 1018.46 1018.91 1019.24 1019.39 1019.34 1019.14 1018.80 1018.40 1017.98 1017.59 1017.25 1016.96 1016.69 1016.41 1016.07 1015.63 1015.06 1014.37 1013.57 1012.71 1011.84 1011.03 1010.34 1009.83
1024.31 1023.97 1023.50 1022.95 1022.32 1021.66 1020.98 1020.29 1019.60 1018.93 1018.28 1017.70 1017.21 1016.85 1016.65 1016.62 1016.77 1017.08 1017.52 1018.01 1018.50 1018.92 1019.23 1019.37 1019.35 1019.19 1018.91 1018.55 1018.18 1017.82 1017.51 1017.22 1016.97 1016.70 1016.38 1015.97 1015.44 1014.79 1014.03 1013.20 1012.33 1011.48 1010.73 1010.11
1024.74 1024.28 1023.64 1022.89 1022.06 1021.22 1020.39 1019.62 1018.93 1018.32 1017.79 1017.37 1017.06 1016.86 1016.80 1016.86 1017.06 1017.37 1017.76 1018.19 1018.61 1018.97 1019.24 1019.38 1019.38 1019.26 1019.02 1018.72 1018.39 1018.05 1017.74 1017.45 1017.18 1016.90 1016.58 1016.18 1015.69 1015.09 1014.38 1013.60 1012.77 1011.93 1011.15 1010.46
1025.02 1024.49 1023.77 1022.89 1021.94 1020.99 1020.11 1019.32 1018.66 1018.12 1017.72 1017.44 1017.27 1017.21 1017.23 1017.35 1017.54 1017.81 1018.12 1018.46 1018.79 1019.08 1019.29 1019.42 1019.43 1019.34 1019.16 1018.90 1018.60 1018.28 1017.96 1017.65 1017.35 1017.04 1016.70 1016.31 1015.85 1015.30 1014.66 1013.95 1013.18 1012.40 1011.62 1010.91
1024.99 1024.46 1023.70 1022.80 1021.83 1020.86 1019.99 1019.25 1018.66 1018.23 1017.96 1017.80 1017.75 1017.78 1017.85 1017.98 1018.14 1018.33 1018.54 1018.77 1019.00 1019.21 1019.37 1019.47 1019.49 1019.43 1019.29 1019.08 1018.80 1018.50 1018.17 1017.83 1017.49 1017.15 1016.79 1016.41 1015.97 1015.48 1014.92 1014.29 1013.61 1012.90 1012.17 1011.45
1024.51 1024.03 1023.31 1022.46 1021.54 1020.65 1019.86 1019.22 1018.75 1018.45 1018.29 1018.25 1018.29 1018.38 1018.48 1018.59 1018.69 1018.80 1018.91 1019.03 1019.17 1019.30 1019.41 1019.49 1019.53 1019.50 1019.39 1019.22 1018.97 1018.67 1018.34 1017.99 1017.62 1017.26 1016.88 1016.50 1016.10 1015.66 1015.18 1014.65 1014.07 1013.44 1012.77 1012.09
1023.55 1023.13 1022.51 1021.75 1020.95 1020.20 1019.54 1019.04 1018.71 1018.54 1018.51 1018.57 1018.68 1018.80 1018.91 1019.00 1019.05 1019.09 1019.12 1019.16 1019.21 1019.28 1019.37 1019.44 1019.48 1019.48 1019.42 1019.28 1019.07 1018.80 1018.47 1018.11 1017.73 1017.36 1016.98 1016.61 1016.25 1015.87 1015.47 1015.03 1014.55 1014.01 1013.41 1012.77
1022.15 1021.81 1021.30 1020.68 1020.04 1019.44 1018.95 1018.61 1018.42 1018.37 1018.44 1018.58 1018.75 1018.90 1019.02 1019.09 1019.10 1019.09 1019.07 1019.06 1019.08 1019.12 1019.19 1019.27 1019.34 1019.37 1019.35 1019.26 1019.09 1018.84 1018.54 1018.19 1017.83 1017.45 1017.09 1016.75 1016.42 1016.10 1015.77 1015.41 1015.01 1014.55 1014.03 1013.44
1020.47 1020.21 1019.81 1019.34 1018.86 1018.43 1018.10 1017.90 1017.83 1017.89 1018.04 1018.23 1018.44 1018.61 1018.74 1018.80 1018.82 1018.79 1018.76 1018.74 1018.74 1018.79 1018.88 1018.98 1019.08 1019.15 1019.18 1019.13 1019.01 1018.80 1018.53 1018.22 1017.88 1017.53 1017.19 1016.88 1016.58 1016.30 1016.03 1015.74 1015.41 1015.02 1014.57 1014.03
1018.71 1018.53 1018.25 1017.91 1017.59 1017.30 1017.11 1017.03 1017.05 1017.18 1017.37 1017.59 1017.81 1018.00 1018.13 1018.21 1018.24 1018.24 1018.23 1018.24 1018.28 1018.35 1018.47 1018.60 1018.74 1018.85 1018.92 1018.91 1018.84 1018.68 1018.46 1018.18 1017.88 1017.57 1017.26 1016.97 1016.71 1016.46 1016.22 1015.97 1015.69 1015.35 1014.95 1014.47
1017.11 1017.00 1016.83 1016.63 1016.43 1016.28 1016.19 1016.18 1016.26 1016.41 1016.60 1016.83 1017.04 1017.22 1017.37 1017.47 1017.53 1017.57 1017.61 1017.67 1017.76 1017.88 1018.03 1018.20 1018.36 1018.51 1018.60 1018.64 1018.60 1018.49 1018.31 1018.09 1017.83 1017.55 1017.27 1017.01 1016.76 1016.53 1016.31 1016.07 1015.81 1015.51 1015.16 1014.72
1015.84 1015.83 1015.77 1015.69 1015.61 1015.55 1015.53 1015.57 1015.65 1015.79 1015.96 1016.14 1016.33 1016.49 1016.64 1016.76 1016.86 1016.95 1017.05 1017.16 1017.29 1017.46 1017.64 1017.83 1018.01 1018.16 1018.27 1018.33 1018.32 1018.24 1018.10 1017.92 1017.70 1017.47 1017.22 1016.97 1016.74 1016.51 1016.28 1016.04 1015.79 1015.50 1015.17 1014.79
1014.98 1015.08 1015.14 1015.18 1015.21 1015.23 1015.26 1015.31 1015.38 1015.48 1015.59 1015.72 1015.86 1015.99 1016.12 1016.25 1016.38 1016.51 1016.65 1016.80 1016.97 1017.16 1017.35 1017.53 1017.70 1017.84 1017.95 1018.00 1018.00 1017.95 1017.84 1017.70 1017.52 1017.32 1017.10 1016.87 1016.64 1016.40 1016.15 1015.90 1015.64 1015.35 1015.05 1014.71
1014.52 1014.73 1014.92 1015.09 1015.22 1015.32 1015.39 1015.45 1015.49 1015.53 1015.59 1015.65 1015.72 1015.80 1015.91 1016.03 1016.16 1016.31 1016.47 1016.64 1016.82 1016.99 1017.16 1017.32 1017.45 1017.55 1017.62 1017.66 1017.65 1017.61 1017.53 1017.42 1017.28 1017.11 1016.92 1016.71 1016.47 1016.22 1015.96 1015.69 1015.41 1015.13 1014.84 1014.54
1014.32 1014.66 1014.99 1015.28 1015.52 1015.70 1015.81 1015.87 1015.90 1015.89 1015.88 1015.87 1015.88 1015.91 1015.97 1016.07 1016.18 1016.32 1016.47 1016.63 1016.78 1016.92 1017.04 1017.14 1017.21 1017.25 1017.28 1017.27 1017.25 1017.21 1017.15 1017.07 1016.97 1016.84 1016.68 1016.48 1016.26 1016.01 1015.74 1015.45 1015.16 1014.88 1014.61 1014.35
1014.24 1014.72 1015.17 1015.59 1015.93 1016.18 1016.34 1016.42 1016.43 1016.39 1016.33 1016.26 1016.21 1016.19 1016.21 1016.26 1016.35 1016.46 1016.57 1016.69 1016.79 1016.86 1016.91 1016.93 1016.93 1016.90 1016.87 1016.83 1016.78 1016.74 1016.70 1016.66 1016.59 1016.50 1016.38 1016.22 1016.01 1015.77 1015.50 1015.21 1014.92 1014.65 1014.39 1014.16
1014.13 1014.71 1015.28 1015.80 1016.24 1016.57 1016.78 1016.88 1016.89 1016.84 1016.75 1016.65 1016.55 1016.49 1016.46 1016.47 1016.51 1016.58 1016.64 1016.70 1016.73 1016.73 1016.70 1016.63 1016.55 1016.45 1016.36 1016.28 1016.22 1016.18 1016.16 1016.15 1016.13 1016.09 1016.01 1015.89 1015.72 1015.50 1015.24 1014.96 1014.68 1014.42 1014.18 1013.99
1013.89 1014.54 1015.20 1015.79 1016.30 1016.69 1016.95 1017.09 1017.12 1017.07 1016.97 1016.84 1016.73 1016.63 1016.57 1016.54 1016.54 1016.56 1016.57 1016.56 1016.52 1016.45 1016.34 1016.20 1016.04 1015.89 1015.75 1015.64 1015.57 1015.53 1015.53 1015.55 1015.58 1015.58 1015.55 1015.47 1015.34 1015.16 1014.93 1014.67 1014.41 1014.16 1013.95 1013.79
1013.48 1014.17 1014.86 1015.51 1016.05 1016.48 1016.78 1016.95 1017.00 1016.97 1016.88 1016.76 1016.64 1016.53 1016.45 1016.40 1016.36 1016.34 1016.29 1016.23 1016.13 1015.99 1015.82 1015.62 1015.41 1015.21 1015.03 1014.90 1014.83 1014.80 1014.82 1014.87 1014.93 1014.97 1014.99 1014.95 1014.86 1014.71 1014.51 1014.28 1014.05 1013.83 1013.64 1013.51
1012.98 1013.66 1014.35 1014.99 1015.55 1015.99 1016.31 1016.50 1016.57 1016.56 1016.49 1016.38 1016.27 1016.17 1016.08 1016.02 1015.96 1015.90 1015.83 1015.72 1015.58 1015.39 1015.17 1014.93 1014.68 1014.45 1014.26 1014.11 1014.03 1014.01 1014.04 1014.10 1014.18 1014.26 1014.30 1014.29 1014.23 1014.11 1013.95 1013.75 1013.55 1013.35 1013.20 1013.09
1012.48 1013.12 1013.77 1014.38 1014.91 1015.34 1015.65 1015.84 1015.93 1015.94 1015.89 1015.80 1015.71 1015.62 1015.54 1015.47 1015.41 1015.33 1015.23 1015.10 1014.92 1014.71 1014.46 1014.19 1013.92 1013.67 1013.46 1013.31 1013.22 1013.19 1013.21 1013.28 1013.36 1013.44 1013.49 1013.50 1013.46 1013.36 1013.22 1013.05 1012.88 1012.72 1012.59 1012.51
1012.11 1012.68 1013.26 1013.81 1014.28 1014.67 1014.96 1015.14 1015.23 1015.24 1015.21 1015.14 1015.07 1014.99 1014.92 1014.85 1014.78 1014.70 1014.58 1014.43 1014.24 1014.00 1013.74 1013.46 1013.17 1012.91 1012.69 1012.52 1012.41 1012.37 1012.38 1012.42 1012.49 1012.55 1012.59 1012.59 1012.55 1012.47 1012.34 1012.20 1012.05 1011.92 1011.83 1011.78
1011.93 1012.42 1012.92 1013.39 1013.80 1014.12 1014.36 1014.51 1014.59 1014.60 1014.58 1014.52 1014.46 1014.39 1014.32 1014.25 1014.17 1014.08 1013.95 1013.78 1013.57 1013.32 1013.04 1012.75 1012.46 1012.18 1011.95 1011.77 1011.64 1011.56 1011.54 1011.55 1011.58 1011.61 1011.63 1011.61 1011.57 1011.48 1011.37 1011.24 1011.12 1011.02 1010.96 1010.94
1011.98 1012.39 1012.80 1013.18 1013.50 1013.76 1013.94 1014.05 1014.10 1014.10 1014.06 1014.01 1013.94 1013.87 1013.79 1013.72 1013.62 1013.50 1013.35 1013.16 1012.93 1012.67 1012.38 1012.07 1011.77 1011.48 1011.23 1011.03 1010.88 1010.77 1010.72 1010.69 1010.68 1010.67 1010.65 1010.61 1010.55 1010.46 1010.35 1010.24 1010.15 1010.08 1010.05 1010.07
1012.21 1012.54 1012.86 1013.15 1013.39 1013.57 1013.68 1013.74 1013.76 1013.73 1013.67 1013.60 1013.52 1013.43 1013.34 1013.23 1013.10 1012.95 1012.77 1012.55 1012.29 1012.01 1011.70 1011.38 1011.07 1010.77 1010.51 1010.29 1010.12 1009.99 1009.90 1009.84 1009.79 1009.75 1009.70 1009.64 1009.57 1009.47 1009.38 1009.28 1009.21 1009.17 1009.18 1009.23
1012.53 1012.79 1013.02 1013.22 1013.38 1013.48 1013.53 1013.54 1013.51 1013.45 1013.36 1013.26 1013.15 1013.03 1012.89 1012.74 1012.57 1012.38 1012.15 1011.89 1011.60 1011.29 1010.96 1010.63 1010.31 1010.01 1009.74 1009.52 1009.33 1009.19 1009.08 1009.00 1008.93 1008.88 1008.81 1008.74 1008.66 1008.58 1008.49 1008.42 1008.37 1008.36 1008.39 1008.48
1012.82 1013.01 1013.16 1013.28 1013.35 1013.38 1013.37 1013.33 1013.25 1013.14 1013.02 1012.88 1012.73 1012.56 1012.38 1012.18 1011.96 1011.71 1011.43 1011.13 1010.81 1010.47 1010.12 1009.79 1009.46 1009.17 1008.91 1008.69 1008.51 1008.37 1008.26 1008.18 1008.11 1008.05 1007.99 1007.92 1007.85 1007.78 1007.71 1007.66 1007.64 1007.65 1007.71 1007.82
Thickness
5438 5447 5449 5447 5448 5448 5445 5449 5450 5459 5461 5461 5461 5461 5464 5467 5471 5474 5475 5476 5477 5478 5479 5482 5485 5487 5490 5492 5495 5497 5499 5501 5502 5504 5505 5507 5510 5511 5513 5513 5514 5514 5514 5514
5429 5446 5447 5442 5442 5443 5444 5446 5447 5449 5447 5450 5453 5453 5451 5453 5457 5460 5461 5463 5463 5465 5466 5469 5471 5474 5477 5480 5482 5485 5487 5488 5490 5492 5494 5496 5498 5499 5501 5501 5502 5503 5503 5503
5427 5437 5435 5430 5431 5433 5435 5436 5438 5437 5436 5440 5440 5440 5437 5439 5442 5445 5447 5448 5449 5450 5452 5454 5457 5461 5464 5467 5470 5473 5475 5477 5478 5480 5481 5484 5486 5488 5489 5490 5491 5491 5492 5492
5416 5418 5416 5430 5430 5430 5426 5425 5425 5426 5427 5427 5427 5427 5427 5427 5428 5430 5432 5434 5436 5437 5439 5442 5445 5448 5451 5454 5457 5460 5463 5465 5466 5467 5469 5472 5474 5475 5477 5478 5478 5479 5480 5480
5407 5411 5417 5424 5419 5415 5415 5412 5413 5414 5416 5416 5417 5418 5416 5417 5417 5418 5419 5421 5423 5425 5427 5429 5432 5435 5438 5441 5444 5447 5450 5452 5454 5456 5458 5460 5461 5463 5464 5465 5466 5467 5468 5468
5402 5404 5407 5415 5408 5405 5404 5400 5403 5405 5404 5404 5406 5404 5403 5405 5406 5407 5408 5409 5411 5413 5415 5417 5420 5423 5426 5428 5431 5435 5437 5440 5442 5444 5446 5447 5449 5450 5452 5453 5454 5455 5456 5456
5395 5397 5400 5402 5399 5400 5395 5395 5395 5395 5392 5392 5390 5389 5390 5393 5394 5394 5395 5397 5400 5402 5403 5405 5408 5411 5413 5416 5419 5422 5425 5427 5429 5431 5433 5435 5437 5438 5440 5441 5442 5443 5444 5444
5389 5389 5394 5393 5391 5388 5387 5389 5388 5386 5384 5381 5380 5380 5381 5381 5381 5382 5383 5385 5388 5390 5391 5394 5396 5399 5401 5403 5406 5409 5412 5414 5417 5419 5421 5423 5425 5426 5428 5430 5431 5431 5432 5432
5386 5391 5392 5386 5384 5383 5382 5380 5379 5377 5376 5374 5371 5370 5370 5371 5372 5373 5373 5374 5376 5378 5380 5382 5384 5387 5389 5391 5394 5397 5399 5401 5404 5406 5409 5411 5413 5414 5416 5418 5419 5420 5421 5421
5380 5386 5386 5383 5381 5379 5376 5372 5372 5370 5368 5366 5363 5361 5359 5360 5361 5363 5364 5364 5366 5367 5369 5371 5374 5376 5378 5380 5383 5385 5387 5389 5391 5394 5396 5399 5401 5403 5404 5406 5408 5409 5410 5411
5373 5378 5379 5380 5376 5373 5369 5367 5365 5362 5359 5357 5354 5352 5351 5350 5352 5353 5353 5354 5355 5357 5359 5361 5364 5366 5369 5371 5373 5374 5376 5378 5380 5383 5385 5387 5389 5391 5392 5395 5398 5399 5400 5401
5376 5377 5371 5370 5370 5367 5362 5359 5357 5354 5350 5348 5345 5344 5343 5342 5343 5343 5344 5344 5345 5347 5349 5352 5355 5357 5359 5362 5363 5365 5366 5367 5369 5371 5373 5375 5377 5379 5382 5384 5387 5389 5391 5391
5375 5373 5368 5365 5362 5359 5355 5352 5349 5346 5343 5339 5338 5337 5335 5334 5334 5334 5335 5335 5336 5338 5341 5344 5346 5348 5351 5353 5354 5355 5356 5358 5359 5361 5363 5365 5367 5369 5371 5373 5376 5378 5380 5382
5370 5364 5359 5356 5352 5350 5346 5344 5341 5338 5336 5333 5331 5329 5328 5327 5327 5326 5327 5328 5330 5331 5333 5335 5338 5340 5342 5345 5346 5347 5348 5349 5351 5352 5354 5356 5357 5360 5362 5364 5365 5367 5370 5372
5362 5358 5352 5348 5344 5341 5338 5335 5332 5329 5327 5326 5324 5322 5321 5320 5319 5320 5321 5322 5324 5325 5326 5328 5330 5332 5334 5336 5337 5338 5339 5341 5342 5343 5345 5347 5348 5351 5353 5355 5356 5358 5360 5362
5355 5349 5344 5339 5336 5332 5329 5326 5323 5321 5320 5318 5316 5315 5314 5313 5313 5314 5315 5316 5316 5318 5319 5321 5322 5324 5326 5328 5330 5331 5332 5333 5334 5335 5336 5338 5340 5342 5344 5346 5347 5349 5351 5353
5344 5340 5336 5332 5329 5325 5322 5320 5317 5315 5313 5310 5309 5308 5308 5307 5307 5307 5308 5309 5310 5311 5312 5314 5315 5317 5319 5320 5322 5323 5323 5325 5327 5327 5328 5330 5331 5333 5335 5337 5339 5341 5342 5345
5342 5338 5333 5328 5323 5319 5316 5314 5311 5308 5305 5304 5302 5301 5301 5300 5300 5300 5301 5302 5303 5304 5305 5307 5309 5310 5312 5313 5314 5315 5316 5317 5318 5319 5321 5322 5324 5326 5327 5329 5331 5332 5333 5336
5336 5331 5327 5322 5318 5313 5309 5307 5304 5301 5299 5297 5296 5295 5294 5294 5294 5295 5295 5295 5296 5297 5299 5301 5303 5304 5305 5306 5308 5310 5311 5311 5312 5313 5314 5316 5317 5318 5319 5321 5323 5324 5325 5327
5331 5326 5321 5316 5312 5307 5303 5300 5298 5295 5292 5290 5289 5289 5288 5288 5288 5288 5288 5289 5290 5291 5293 5295 5296 5297 5298 5300 5302 5303 5304 5305 5305 5306 5307 5308 5309 5311 5312 5314 5315 5317 5317 5319
5325 5320 5315 5309 5305 5301 5297 5294 5291 5288 5286 5284 5283 5282 5282 5282 5282 5282 5282 5283 5284 5286 5288 5290 5290 5291 5292 5294 5295 5296 5298 5299 5300 5300 5301 5302 5303 5304 5306 5307 5308 5310 5311 5312
5318 5313 5308 5303 5299 5295 5291 5288 5285 5282 5279 5278 5277 5277 5276 5276 5276 5277 5277 5277 5279 5281 5282 5283 5284 5285 5287 5288 5289 5290 5291 5293 5294 5295 5296 5297 5298 5298 5300 5301 5302 5303 5304 5305
5311 5306 5301 5296 5292 5288 5285 5281 5279 5276 5274 5272 5272 5271 5271 5271 5271 5272 5273 5273 5274 5276 5277 5278 5279 5281 5283 5282 5283 5284 5285 5287 5288 5289 5290 5291 5292 5293 5294 5295 5296 5297 5298 5299
5303 5299 5294 5289 5285 5281 5278 5276 5273 5271 5269 5268 5267 5266 5266 5266 5267 5267 5268 5269 5270 5272 5272 5273 5275 5276 5277 5277 5277 5278 5279 5280 5282 5283 5284 5285 5286 5288 5289 5290 5291 5292 5293 5293
5296 5291 5287 5283 5279 5277 5274 5271 5269 5266 5265 5263 5263 5262 5262 5262 5262 5262 5263 5264 5266 5267 5267 5268 5270 5271 5271 5271 5271 5272 5273 5275 5276 5277 5279 5280 5281 5282 5283 5285 5286 5287 5288 5288
5290 5286 5282 5279 5277 5274 5270 5267 5265 5263 5261 5260 5259 5258 5258 5258 5258 5258 5258 5259 5261 5262 5262 5262 5263 5265 5265 5266 5267 5267 5268 5270 5271 5272 5273 5275 5276 5277 5278 5279 5281 5282 5283 5284
5284 5280 5277 5275 5272 5270 5267 5264 5261 5260 5258 5256 5255 5254 5254 5253 5253 5254 5254 5255 5256 5257 5257 5258 5259 5259 5260 5261 5262 5263 5264 5265 5267 5268 5269 5270 5271 5272 5273 5275 5276 5278 5279 5280